NJE514 KROA-KMKE

Flight info

Callsign NJE514
Flight time N/A
Altitude 37000
Route BKW APE PMM
Aircraft GLF6/M-SGDFIBRWXY/A009FD

Departure

Time 2026-05-08 00:39
Airport Roanoke–Blacksburg Regional Airport (KROA)

Arrival

Time N/A
Airport General Mitchell International Airport (KMKE)
Time Latitude Longitude Altitude Speed Heading
2026-05-08 00:26 37.32502 -79.97228 1162 ft 0 kts 352°
2026-05-08 00:35 37.32517 -79.97234 1160 ft 5 kts 322°
2026-05-08 00:35 37.32523 -79.97300 1163 ft 8 kts 287°
2026-05-08 00:35 37.32522 -79.97370 1163 ft 9 kts 262°
2026-05-08 00:36 37.32512 -79.97467 1163 ft 13 kts 263°
2026-05-08 00:36 37.32501 -79.97572 1163 ft 12 kts 312°
2026-05-08 00:36 37.32581 -79.97636 1164 ft 16 kts 345°
2026-05-08 00:36 37.32662 -79.97561 1163 ft 16 kts 50°
2026-05-08 00:37 37.32820 -79.97334 1163 ft 17 kts 40°
2026-05-08 00:37 37.32899 -79.97224 1163 ft 17 kts 50°
2026-05-08 00:38 37.32966 -79.97310 1162 ft 0 kts 230°
2026-05-08 00:38 37.32812 -79.97537 1163 ft 79 kts 230°
2026-05-08 00:38 37.32262 -79.98342 1165 ft 161 kts 232°
2026-05-08 00:39 37.31425 -79.99572 1750 ft 209 kts 231°
2026-05-08 00:39 37.30381 -80.01167 2665 ft 255 kts 234°
2026-05-08 00:39 37.29815 -80.02877 5229 ft 174 kts 284°
2026-05-08 00:39 37.30464 -80.04215 6323 ft 215 kts 314°
2026-05-08 00:40 37.32109 -80.05532 5355 ft 332 kts 331°
2026-05-08 00:40 37.34010 -80.06845 8133 ft 261 kts 326°
2026-05-08 00:40 37.35357 -80.07972 11909 ft 215 kts 317°
2026-05-08 00:40 37.36558 -80.09118 13493 ft 226 kts 314°
2026-05-08 00:41 37.37745 -80.10575 14043 ft 252 kts 303°
2026-05-08 00:41 37.38808 -80.12368 14983 ft 266 kts 301°
2026-05-08 00:41 37.39923 -80.14301 15992 ft 283 kts 301°
2026-05-08 00:41 37.41116 -80.16563 15918 ft 336 kts 294°
2026-05-08 00:42 37.42077 -80.19462 15821 ft 391 kts 288°
2026-05-08 00:42 37.43072 -80.22919 15746 ft 439 kts 287°
2026-05-08 00:42 37.43965 -80.26586 16013 ft 437 kts 283°
2026-05-08 00:42 37.44708 -80.30307 16889 ft 440 kts 282°
2026-05-08 00:43 37.45455 -80.34044 17719 ft 440 kts 282°
2026-05-08 00:43 37.46264 -80.37779 18807 ft 442 kts 283°
2026-05-08 00:43 37.47139 -80.41505 19827 ft 445 kts 284°
2026-05-08 00:43 37.48018 -80.45259 20826 ft 449 kts 283°
2026-05-08 00:44 37.49105 -80.48918 22134 ft 454 kts 292°
2026-05-08 00:44 37.50811 -80.52392 23103 ft 473 kts 301°
2026-05-08 00:44 37.53015 -80.55537 23510 ft 484 kts 309°
2026-05-08 00:44 37.55612 -80.58269 23522 ft 491 kts 316°
2026-05-08 00:45 37.58393 -80.60759 24510 ft 487 kts 316°
2026-05-08 00:45 37.61087 -80.63221 25525 ft 480 kts 315°
2026-05-08 00:45 37.63772 -80.65707 26577 ft 474 kts 314°
2026-05-08 00:45 37.64451 -80.66360 26866 ft 471 kts 313°